Location: Unspecified
(51.0000°N, 12.0000°E)
Time: 09:40:58
(UTC+02:00)

ISS - Pass Details

Date: 17 March 2018
Orbit: 403 x 408 km, 51.6° (Epoch: 21 September)

Event Time Altitude Azimuth Distance (km) Brightness Sun altitude
Exits shadow 04:23:04 39° 169° (S) 638 -3.0 -19.1°
Drops below altitude 10° 04:25:37 10° 131° (SE) 1,483 -0.7 -18.7°
Sets 04:27:44 0° 125° (SE) 2,339 0.5 -18.4°
